Miscellaneous Local Product
Issued by NWS Hastings, NE

Home | Current Version | Previous Version | Graphics & Text | Print | Product List | Glossary On
Versions: 1 2 3 4 5 6 7 8 9 10 11 12 13 14 15 16 17 18 19 20 21 22 23 24 25 26 27 28 29 30 31 32 33 34 35 36 37 38 39 40 41 42 43 44 45 46 47 48 49 50
000
AXUS43 KGID 170802
MISGRI

GID CWA HOURLY WEATHER ROUNDUP
NATIONAL WEATHER SERVICE HASTINGS NE
200 AM CST SUN DEC 17 2017

NOTE: "FAIR" INDICATES FEW OR NO CLOUDS BELOW 12,000 FEET WITH NO
SIGNIFICANT WEATHER AND/OR OBSTRUCTIONS TO VISIBILITY.

...SOUTH CENTRAL NEBRASKA...

CITY           SKY/WX    TMP DP  RH WIND       PRES   REMARKS
GRAND ISLAND   CLOUDY    30  29  96 N12       29.96F WCI  20
KEARNEY        CLOUDY    30  29  96 N13       29.96F WCI  20
HASTINGS       CLOUDY    32  28  85 NE14      29.94F WCI  22
ORD            CLOUDY    35  31  85 E7        29.99R WCI  29
YORK           CLOUDY    32  32 100 NE13      29.94F WCI  22
AURORA         CLOUDY    31  29  92 N13       29.95F WCI  21
LEXINGTON      MOCLDY    36  32  87 NE12      29.97R WCI  27
HOLDREGE       CLOUDY    32  31  96 NE9       29.96R WCI  24
HEBRON         CLOUDY    36  28  73 NE3       29.93S

...NEBRASKA PANHANDLE...

CITY           SKY/WX    TMP DP  RH WIND       PRES   REMARKS
CHADRON        CLOUDY    29  27  92 CALM      30.03F
ALLIANCE       CLOUDY    30  28  92 NE7       29.98F WCI  23
SCOTTSBLUFF    CLOUDY    32  27  81 E8        30.00S WCI  25
SIDNEY         CLOUDY    30  30 100 NE8       29.96S FOG     WCI  22

...WESTERN AND NORTH CENTRAL NEBRASKA...

CITY           SKY/WX    TMP DP  RH WIND       PRES   REMARKS
VALENTINE      CLOUDY    36  31  82 N6        30.01F WCI  31
AINSWORTH      CLOUDY    34  33  96 N9        29.99F WCI  27
ONEILL         CLOUDY    33  33  98 N7        30.00S WCI  27
BROKEN BOW     CLOUDY    37  32  82 NE12      29.98R WCI  29
IMPERIAL       CLOUDY    35  33  92 NE10      29.97R WCI  27
NORTH PLATTE   CLOUDY    37  33  85 NE9       29.98R WCI  30
MCCOOK         CLOUDY    37  32  82 NE16      29.95S WCI  28

...EASTERN NEBRASKA...

CITY           SKY/WX    TMP DP  RH WIND       PRES   REMARKS
NORFOLK        CLOUDY    31  28  89 NE7       30.01R WCI  24
SO SIOUX CITY  CLOUDY    28  26  92 N9        30.01F WCI  19
TEKAMAH        PTCLDY    27  22  81 N10       30.01R WCI  17
COLUMBUS       CLOUDY    29  26  89 N8        30.00R WCI  21
ALBION         CLOUDY    34  31  87 NE9       30.00R WCI  27
OMAHA EPPLEY   CLOUDY    30  24  78 N7        29.98S WCI  23
OFFUTT AFB     CLOUDY    34  27  77 NE7       29.96F WCI  27
MILLARD        CLOUDY    37  30  76 CALM      29.97S
LINCOLN        CLOUDY    33  27  78 N9        29.96F WCI  25
NEBRASKA CITY  CLOUDY    33  26  74 N7        29.94S WCI  27
BEATRICE       MOCLDY    36  27  71 NE10      29.93S WCI  28
FALLS CITY     CLOUDY    36  26  67 CALM      29.93S

...NORTHERN KANSAS...

CITY           SKY/WX    TMP DP  RH WIND       PRES   REMARKS
GOODLAND       CLOUDY    32  29  88 NE18G26   29.91S WCI  20
HILL CITY      CLOUDY    35  30  82 N9        29.90S WCI  28
NORTON         SUNNY     34  28  80 N9        29.91S WCI  26
PHILLIPSBURG   PTCLDY    36  30  80 N8        29.91S WCI  29
SMITH CENTER   CLOUDY    34  28  80 NE9       29.90S WCI  26
HAYS           CLOUDY    39  25  57 N6        29.87S WCI  35
RUSSELL        CLOUDY    46  28  49 SW7       29.86R
CONCORDIA      CLOUDY    38  27  64 CALM      29.89F
SALINA         CLOUDY    47  38  71 S17       29.88F
TOPEKA         CLOUDY    44  32  62 CALM      29.96S



USA.gov is the U.S. government's official web portal to all federal, state and local government web resources and services.